Tracking 19192 objects as of 18-Jun-2018
HD Live streaming from Space Station
objects crossing your sky now

FENGYUN 1C DEB

Track FENGYUN 1C DEB now!
10-day predictions


NORAD ID: 31036
Int'l Code: 1999-025BEE
Perigee: 643.5 km
Apogee: 852.2 km
Inclination: 98.9 °
Period: 99.6 minutes
Semi major axis: 7118 km
RCS: 0.0103 m2 (small)
Launch date: May 10, 1999
Source: People's Republic of China (PRC)
Launch site: Taiyaun Space Center, China (TSC)

Note: This is SATELLITE DEBRIS
aabbcc
Your satellite tracking list
Your tracking list is empty




NASA's NSSDC Master Catalog

Two Line Element Set (TLE):
1 31036U 99025BEE 18169.25796522  .00000083  00000-0  34355-4 0  9996
2 31036  98.9094  82.4662 0146594 149.4818   2.0825 14.45397418592982
Source of the keplerian elements: AFSPC